| time (UTC) | temp C | wind direction | speed KPH | gust KPH | rain 1hr cm | rain 24hr cm | rain mn cm | humidity % | barometer mb |
| 20260506103546 | 8 | 207 | 11.3 | 29.0 | 0.00 | 0.00 | 0.00 | 48 | 1014.4 |
| 20260506101856 | 8 | 188 | 9.7 | 22.5 | 0.00 | 0.00 | 0.00 | 52 | 1014.3 |
| 20260506100032 | 8 | 202 | 12.9 | 25.7 | 0.00 | 0.00 | 0.00 | 50 | 1014.1 |
| 20260506094431 | 9 | 208 | 11.3 | 20.9 | 0.00 | 0.00 | 0.00 | 46 | 1013.9 |
| 20260506092516 | 9 | 190 | 6.4 | 22.5 | 0.00 | 0.00 | 0.00 | 45 | 1013.7 |
| 20260506090747 | 10 | 179 | 8.0 | 19.3 | 0.00 | 0.00 | 0.00 | 1013.5 | |
| 20260506085046 | 9 | 211 | 8.0 | 17.7 | 0.00 | 0.00 | 0.00 | 38 | 1013.5 |
| 20260506083446 | 8 | 235 | 8.0 | 19.3 | 0.00 | 0.00 | 0.00 | 45 | 1013.4 |
| 20260506081807 | 8 | 187 | 8.0 | 22.5 | 0.00 | 0.00 | 0.00 | 43 | 1013.5 |
| 20260506070457 | -17 | 222 | 8.0 | 16.1 | 0.00 | 0.00 | 0.00 | 43 | 1013.2 |
| 20260506060951 | 6 | 162 | 6.4 | 16.1 | 0.00 | 0.00 | 0.00 | 56 | 1013.0 |
| 20260506043805 | 3 | 182 | 6.4 | 14.5 | 0.00 | 0.00 | 0.00 | 71 | 1012.1 |
| 20260506042021 | 3 | 196 | 4.8 | 14.5 | 0.00 | 0.00 | 0.00 | 74 | 1011.9 |
| 20260506040251 | 2 | 182 | 4.8 | 11.3 | 0.00 | 0.00 | 0.00 | 78 | 1011.7 |
| 20260506034522 | 1 | 112 | 3.2 | 9.7 | 0.00 | 0.00 | 0.00 | 83 | 1011.7 |
| 20260506032648 | 0 | 127 | 3.2 | 8.0 | 0.00 | 0.00 | 0.00 | 1011.5 | |
| 20260506030714 | 0 | 134 | 3.2 | 9.7 | 0.00 | 0.00 | 0.00 | 86 | 1011.3 |
| 20260506022956 | -1 | 179 | 4.8 | 14.5 | 0.00 | 0.00 | 0.00 | 85 | 1011.0 |
| 20260506015435 | -17 | 139 | 4.8 | 0.0 | 0.00 | 0.00 | 0.00 | 84 | 1010.7 |
| 20260506015431 | -1 | 139 | 4.8 | 12.9 | 0.00 | 0.00 | 0.00 | 84 | 1010.7 |
| 20260506013707 | -1 | 165 | 3.2 | 11.3 | 0.00 | 0.00 | 0.00 | 84 | 1010.5 |
| 20260506011948 | -1 | 140 | 3.2 | 9.7 | 0.00 | 0.00 | 0.00 | 84 | 1010.4 |
| 20260506004506 | -1 | 153 | 4.8 | 9.7 | 0.00 | 0.00 | 0.00 | 82 | 1010.1 |
| 20260506002746 | 0 | 101 | 4.8 | 9.7 | 0.00 | 0.00 | 0.00 | 82 | 1010.0 |
| 20260506001004 | 0 | 139 | 9.7 | 0.0 | 0.00 | 0.00 | 0.00 | 80 | 1009.9 |
| 20260506001001 | 0 | 139 | 4.8 | 9.7 | 0.00 | 0.00 | 0.00 | 80 | 1009.9 |
| 20260505235106 | 0 | 195 | 3.2 | 16.1 | 0.00 | 0.00 | 0.00 | 78 | 1009.7 |
| 20260505231629 | 0 | 170 | 3.2 | 9.7 | 0.00 | 0.00 | 0.00 | 75 | 1009.7 |
| 20260505231626 | 0 | 170 | 3.2 | 9.7 | 0.00 | 0.00 | 0.00 | 75 | 1009.7 |
| 20260505225751 | 1 | 106 | 3.2 | 9.7 | 0.00 | 0.00 | 0.00 | 72 | 1009.5 |
| 20260505224011 | 1 | 171 | 4.8 | 11.3 | 0.00 | 0.00 | 0.00 | 71 | 1009.4 |
| 20260505222236 | 2 | 145 | 4.8 | 11.3 | 0.00 | 0.00 | 0.00 | 68 | 1009.3 |
| 20260505220541 | 2 | 168 | 4.8 | 11.3 | 0.00 | 0.00 | 0.00 | 67 | 1009.3 |
| 20260505212736 | 3 | 169 | 6.4 | 11.3 | 0.00 | 0.00 | 0.00 | 64 | 1009.2 |
| 20260505210831 | 3 | 179 | 6.4 | 12.9 | 0.00 | 0.00 | 0.00 | 63 | 1009.1 |
| 20260505205131 | 3 | 174 | 6.4 | 12.9 | 0.00 | 0.00 | 0.00 | 62 | 1008.9 |
| 20260505203321 | 3 | 168 | 4.8 | 11.3 | 0.00 | 0.00 | 0.00 | 59 | 1008.7 |
| 20260505201626 | 3 | 166 | 6.4 | 11.3 | 0.00 | 0.00 | 0.00 | 57 | 1008.6 |
| 20260505195802 | 4 | 149 | 4.8 | 12.9 | 0.00 | 0.00 | 0.00 | 51 | |
| 20260505194046 | 5 | 178 | 6.4 | 12.9 | 0.00 | 0.00 | 0.00 | 54 | 1008.3 |
| 20260505192326 | 5 | 193 | 6.4 | 12.9 | 0.00 | 0.00 | 0.00 | 55 | 1008.3 |
| 20260505190456 | 5 | 183 | 6.4 | 12.9 | 0.00 | 0.00 | 0.00 | 54 | 1008.1 |
| 20260505184704 | 5 | 181 | 6.4 | 12.9 | 0.00 | 0.00 | 0.00 | 52 | 1008.0 |
| 20260505182831 | 5 | 174 | 8.0 | 17.7 | 0.00 | 0.00 | 0.00 | 50 | 1007.8 |
| 20260505180926 | 6 | 190 | 6.4 | 14.5 | 0.00 | 0.00 | 0.00 | 53 | 1007.5 |
| 20260505175040 | 6 | 200 | 6.4 | 12.9 | 0.00 | 0.00 | 0.00 | 55 | 1007.3 |
| 20260505173145 | 6 | 212 | 9.7 | 19.3 | 0.00 | 0.00 | 0.00 | 55 | 1007.1 |
| 20260505171155 | 7 | 209 | 8.0 | 19.3 | 0.00 | 0.00 | 0.00 | 54 | 1007.0 |
| 20260505165330 | 7 | 216 | 6.4 | 16.1 | 0.00 | 0.00 | 0.00 | 51 | 1006.9 |
| 20260505163536 | 7 | 222 | 8.0 | 24.1 | 0.00 | 0.00 | 0.00 | 46 | 1006.9 |
| 20260505161927 | 8 | 230 | 16.1 | 16.1 | 0.00 | 0.00 | 0.00 | 40 | 1006.8 |
| 20260505161925 | 8 | 230 | 6.4 | 16.1 | 0.00 | 0.00 | 0.00 | 40 | 1006.8 |
| 20260505152630 | 9 | 220 | 9.7 | 27.4 | 0.00 | 0.00 | 0.00 | 40 | 1006.5 |
| 20260505150740 | 10 | 242 | 8.0 | 19.3 | 0.00 | 0.00 | 0.00 | 37 | 1006.4 |
| 20260505124920 | 10 | 233 | 9.7 | 25.7 | 0.00 | 0.00 | 0.00 | 36 | 1005.5 |
| 20260505123130 | 11 | 217 | 9.7 | 35.4 | 0.00 | 0.00 | 0.00 | 38 | 1005.3 |
| 20260505121253 | -17 | 225 | 9.7 | 0.0 | 0.00 | 0.00 | 0.00 | 37 | 1005.2 |
| 20260505121250 | 11 | 225 | 9.7 | 27.4 | 0.00 | 0.00 | 0.00 | 37 | 1005.2 |
| 20260505115545 | 11 | 234 | 11.3 | 29.0 | 0.00 | 0.00 | 0.00 | 38 | 1005.0 |
| 20260505113940 | 11 | 229 | 9.7 | 30.6 | 0.00 | 0.00 | 0.00 | 39 | 1004.8 |
| 20260505112155 | 10 | 230 | 8.0 | 17.7 | 0.00 | 0.00 | 0.00 | 41 | 1004.8 |
| 20260505110450 | 11 | 231 | 11.3 | 22.5 | 0.00 | 0.00 | 0.00 | 39 | 1004.5 |